New Castle, PA

5:13 AM EDT on May 25, 2017 (GMT -0400)
New Castle Municipal

Weather History for KUCP - July, 2013

Change the Weather History Date:

Wednesday, July 10, 2013

  Actual Average Record
Temperature  
Mean Temperature 74 °F -  
Max Temperature 84 °F 84 °F 98 °F (1936)
Min Temperature 64 °F 59 °F 40 °F (1963)
Cooling Degree Days 9    
Growing Degree Days 24 (Base 50)    
Moisture  
Dew Point 69 °F    
Average Humidity 94    
Maximum Humidity 100    
Minimum Humidity 74    
Precipitation  
Precipitation 1.04 in - - ()
Sea Level Pressure  
Sea Level Pressure 29.95 in    
Wind  
Wind Speed 4 mph (SSW)    
Max Wind Speed 18 mph    
Max Gust Speed 24 mph    
Visibility 5 miles    
Events Rain    
Averages and records for this station are not official NWS values.
T = Trace of Precipitation, MM = Missing Value Source: NWS Daily Summary

Daily Weather History Graph

Daily Weather History Graph

Search for Another Location

Airport or City:

Trip Planner

Search our weather history database for the weather conditions in past years. The results will help you decide how hot, cold, wet, or windy it might be!

Date:

Astronomy

Jul. 10, 2013 Rise Set
Actual Time 5:58 AM EDT 8:55 PM EDT
Civil Twilight 5:25 AM EDT 9:27 PM EDT
Nautical Twilight 4:44 AM EDT 10:09 PM EDT
Astronomical Twilight 3:55 AM EDT 10:57 PM EDT
Moon 8:19 AM EDT (7/10) 10:02 PM EDT (7/10)
Length of Visible Light 16h 02m
Length of Day
14h 56m
Waxing Crescent, 5% of the Moon is Illuminated
Jul 10
Waxing Crescent
Jul 15
First Quarter
Jul 22
Full
Jul 29
Last Quarter
Aug 6
New

Hourly Weather History & Observations

Time (EDT) Temp. Heat Index Dew Point Humidity Pressure Visibility Wind Dir Wind Speed Gust Speed Precip Events Conditions
12:56 AM 70.9 °F - 70.0 °F 97% 30.03 in 10.0 mi SSW 3.5 mph - 0.01 in   Scattered Clouds
1:44 AM 71.6 °F - 69.8 °F 94% 29.99 in 10.0 mi Calm Calm - N/A   Mostly Cloudy
1:56 AM 71.6 °F - 69.8 °F 94% 30.00 in 10.0 mi Variable 4.6 mph - N/A   Mostly Cloudy
2:11 AM 71.6 °F - 69.8 °F 94% 29.99 in 10.0 mi SSW 3.5 mph - N/A   Mostly Cloudy
2:56 AM 70.9 °F - 70.0 °F 97% 30.00 in 7.0 mi Variable 3.5 mph - 0.00 in Rain Light Rain
3:56 AM 70.9 °F - 70.0 °F 97% 30.01 in 8.0 mi WNW 6.9 mph - 0.00 in   Overcast
4:19 AM 71.6 °F - 69.8 °F 94% 29.98 in 4.0 mi Calm Calm - 0.01 in Rain Light Rain
4:56 AM 69.8 °F - 69.8 °F 100% 29.98 in 8.0 mi Calm Calm - N/A   Mostly Cloudy
5:15 AM 71.6 °F - 69.8 °F 94% 29.99 in 4.0 mi Calm Calm - 0.01 in Rain Light Rain
5:26 AM 71.6 °F - 69.8 °F 94% 29.98 in 1.8 mi SSW 5.8 mph - 0.07 in Rain Heavy Rain
5:33 AM 69.8 °F - 69.8 °F 100% 29.98 in 2.0 mi Calm Calm - 0.09 in Rain Light Rain
5:37 AM 69.8 °F - 69.8 °F 100% 29.97 in 3.0 mi SSW 4.6 mph - 0.09 in Rain Light Rain
5:56 AM 70.0 °F - 70.0 °F 100% 29.98 in 6.0 mi Variable 3.5 mph - 0.09 in Rain Light Rain
6:04 AM 69.8 °F - 69.8 °F 100% 29.96 in 7.0 mi Variable 4.6 mph - 0.00 in Rain Light Rain
6:11 AM 69.8 °F - 69.8 °F 100% 29.99 in 6.0 mi Variable 4.6 mph - 0.01 in Rain Light Rain
6:19 AM 69.8 °F - 69.8 °F 100% 30.00 in 1.8 mi Calm Calm - 0.09 in Rain Heavy Rain
6:25 AM 69.8 °F - 69.8 °F 100% 30.01 in 1.0 mi WSW 9.2 mph - 0.19 in Rain Heavy Rain
6:39 AM 69.8 °F - 69.8 °F 100% 29.97 in 1.8 mi Variable 3.5 mph - 0.32 in Rain Heavy Rain
6:41 AM 69.8 °F - 69.8 °F 100% 29.97 in 3.0 mi Variable 4.6 mph - 0.32 in Rain Light Rain
6:56 AM 68.9 °F - 68.9 °F 100% 29.99 in 1.8 mi South 6.9 mph - 0.36 in Rain Heavy Rain
7:00 AM 69.8 °F - 69.8 °F 100% 29.96 in 1.5 mi Variable 4.6 mph - 0.00 in Rain Light Rain
7:04 AM 69.8 °F - 69.8 °F 100% 29.96 in 2.0 mi Variable 5.8 mph - 0.01 in Rain Light Rain
7:06 AM 69.8 °F - 69.8 °F 100% 29.96 in 3.0 mi Variable 4.6 mph - 0.01 in Rain Light Rain
7:47 AM 69.8 °F - 69.8 °F 100% 29.98 in 10.0 mi Calm Calm - 0.02 in   Overcast
7:56 AM 69.8 °F - 69.8 °F 100% 29.99 in 2.5 mi NE 4.6 mph - N/A Rain Rain
8:01 AM 69.8 °F - 69.8 °F 100% 29.98 in 1.8 mi East 5.8 mph - 0.02 in Rain Rain
8:24 AM 69.8 °F - 69.8 °F 100% 29.98 in 1.2 mi Calm Calm - 0.10 in Rain Light Rain
8:28 AM 69.8 °F - 69.8 °F 100% 29.97 in 2.0 mi Calm Calm - 0.10 in Rain Light Rain
8:37 AM 69.8 °F - 69.8 °F 100% 29.97 in 5.0 mi Calm Calm - 0.10 in Rain Light Rain
8:46 AM 69.8 °F - 69.8 °F 100% 29.97 in 7.0 mi SSW 3.5 mph - 0.10 in Rain Light Rain
8:56 AM 70.0 °F - 70.0 °F 100% 29.99 in 10.0 mi Variable 3.5 mph - 0.10 in   Scattered Clouds
9:56 AM 70.9 °F - 68.0 °F 91% 29.99 in 10.0 mi Variable 4.6 mph - N/A   Mostly Cloudy
10:36 AM 73.4 °F - 71.6 °F 94% 29.95 in 10.0 mi Variable 3.5 mph - N/A   Scattered Clouds
10:56 AM 75.2 °F - 71.6 °F 89% 29.95 in 10.0 mi South 3.5 mph - N/A   Mostly Cloudy
11:09 AM 75.2 °F - 71.6 °F 89% 29.95 in 10.0 mi Variable 3.5 mph - N/A   Mostly Cloudy
11:56 AM 77.9 °F - 72.9 °F 84% 29.96 in 10.0 mi SSW 3.5 mph - N/A   Mostly Cloudy
12:04 PM 78.8 °F - 73.4 °F 83% 29.94 in 9.0 mi SW 6.9 mph - N/A   Mostly Cloudy
12:56 PM 82.9 °F 89.9 °F 74.8 °F 76% 29.94 in 10.0 mi SSW 5.8 mph - N/A   Mostly Cloudy
1:31 PM 84.2 °F 92.3 °F 75.2 °F 74% 29.90 in 10.0 mi Variable 5.8 mph - N/A   Mostly Cloudy
1:41 PM 84.2 °F 92.3 °F 75.2 °F 74% 29.90 in 10.0 mi South 6.9 mph - N/A   Scattered Clouds
1:56 PM 84.2 °F 92.3 °F 75.2 °F 74% 29.90 in 10.0 mi Variable 5.8 mph - N/A   Scattered Clouds
2:56 PM 82.9 °F 91.8 °F 77.0 °F 82% 29.88 in 10.0 mi Calm Calm - 0.00 in   Partly Cloudy
3:56 PM 79.0 °F - 74.8 °F 87% 29.88 in 9.0 mi Calm Calm - 0.02 in Rain Light Rain
4:24 PM 73.4 °F - 66.2 °F 78% 29.90 in 2.5 mi ESE 8.1 mph - 0.09 in Rain Rain
4:27 PM 71.6 °F - 64.4 °F 78% 29.89 in 1.5 mi Variable 6.9 mph - 0.12 in Rain Heavy Rain
4:31 PM 69.8 °F - 64.4 °F 83% 29.88 in 1.0 mi East 18.4 mph 21.9 mph 0.14 in Rain Heavy Rain
4:34 PM 69.8 °F - 64.4 °F 83% 29.88 in 1.5 mi ENE 18.4 mph 23.0 mph 0.14 in Rain Light Rain
4:39 PM 68.0 °F - 64.4 °F 88% 29.87 in 3.0 mi ENE 18.4 mph 24.2 mph 0.14 in   Mostly Cloudy
4:49 PM 68.0 °F - 66.2 °F 94% 29.89 in 10.0 mi NE 9.2 mph - 0.14 in Rain Light Rain
4:56 PM 68.0 °F - 66.2 °F 94% 29.95 in 1.0 mi West 13.8 mph 20.7 mph N/A Rain Heavy Rain
5:00 PM 66.2 °F - 66.2 °F 100% 29.95 in 0.8 mi NW 9.2 mph 20.7 mph 0.01 in Rain Rain
5:04 PM 66.2 °F - 64.4 °F 94% 29.93 in 1.0 mi North 6.9 mph - 0.01 in Rain Light Rain
5:06 PM 66.2 °F - 64.4 °F 94% 29.93 in 1.5 mi North 5.8 mph - 0.02 in Rain Light Rain
5:08 PM 66.2 °F - 64.4 °F 94% 29.93 in 3.0 mi NNW 4.6 mph - 0.02 in Rain Light Rain
5:15 PM 68.0 °F - 64.4 °F 88% 29.92 in 1.8 mi North 10.4 mph - 0.05 in Rain Rain
5:18 PM 68.0 °F - 64.4 °F 88% 29.92 in 1.0 mi North 11.5 mph - 0.10 in Rain Rain
5:26 PM 68.0 °F - 66.2 °F 94% 29.92 in 1.0 mi North 9.2 mph 17.3 mph 0.14 in Rain Heavy Rain
5:29 PM 68.0 °F - 66.2 °F 94% 29.93 in 1.5 mi North 10.4 mph 17.3 mph 0.14 in Rain Rain
5:35 PM 68.0 °F - 66.2 °F 94% 29.95 in 2.0 mi Variable 4.6 mph - 0.16 in Rain Rain
5:46 PM 66.2 °F - 66.2 °F 100% 29.96 in 1.2 mi SE 3.5 mph - 0.19 in Rain Rain
5:56 PM 68.0 °F - 66.9 °F 96% 30.00 in 1.5 mi Calm Calm - 0.24 in Rain Light Rain
6:07 PM 66.2 °F - 66.2 °F 100% 29.96 in 2.0 mi Calm Calm - 0.02 in Rain Rain
6:23 PM 66.2 °F - 66.2 °F 100% 29.95 in 4.0 mi Calm Calm - 0.03 in Rain Light Rain
6:37 PM 66.2 °F - 66.2 °F 100% 29.95 in 2.0 mi Calm Calm - 0.07 in Rain Rain
6:48 PM 66.2 °F - 66.2 °F 100% 29.94 in 2.0 mi Calm Calm - 0.11 in Rain Rain
6:56 PM 66.9 °F - 65.8 °F 96% 29.96 in 1.5 mi Calm Calm - 0.15 in Rain Heavy Rain
7:11 PM 66.2 °F - 66.2 °F 100% 29.90 in 2.5 mi ESE 8.1 mph - 0.06 in Rain Rain
7:21 PM 66.2 °F - 66.2 °F 100% 29.89 in 5.0 mi SE 9.2 mph - 0.07 in Rain Light Rain
7:56 PM 66.9 °F - 65.8 °F 96% 29.92 in 10.0 mi Variable 4.6 mph - 0.07 in Rain Light Rain
8:49 PM 66.2 °F - 66.2 °F 100% 29.93 in 10.0 mi West 6.9 mph - 0.00 in   Scattered Clouds
8:56 PM 65.8 °F - 65.8 °F 100% 29.96 in 10.0 mi WSW 5.8 mph - 0.00 in   Mostly Cloudy
9:14 PM 66.2 °F - 64.4 °F 94% 29.94 in 10.0 mi SW 4.6 mph - N/A   Scattered Clouds
9:56 PM 64.9 °F - 64.9 °F 100% 29.98 in 10.0 mi Calm Calm - N/A   Partly Cloudy
10:56 PM 64.9 °F - 63.9 °F 96% 29.97 in 10.0 mi Calm Calm - N/A   Clear
11:56 PM 64.9 °F - 63.9 °F 96% 29.96 in 10.0 mi Calm Calm - N/A   Mostly Cloudy